contact:dominique.lefevre@mio.osupytheas.fr, maurice.libes@osupytheas.fr, didier.mallarino@osupytheas.fr
Project:EMSO http://www.emso-fr.org/EMSO-France
Depth: 2436.0 m
Title:EMSO Ligure Ouest : Data MII capteur MICROCAT
DateTime_Computer,Latitude,Longitude,Temperature,Conductivity,Pressure,DateTime_Instrument
DateTime_Computer,Latitude,Longitude,degC,S m-1,dbar,DateTime_Instrument
2020-11-12T00:02:06Z,42.805,6.029,13.3037,4.60011,2470.124,2020-11-12T02:03:02Z
2020-11-12T00:05:09Z,42.805,6.029,13.3039,4.60012,2470.11,2020-11-12T02:06:05Z
2020-11-12T00:08:12Z,42.805,6.029,13.3022,4.60065,2470.1,2020-11-12T02:09:08Z
2020-11-12T00:11:15Z,42.805,6.029,13.3030,4.60060,2470.11,2020-11-12T02:12:11Z
2020-11-12T00:14:18Z,42.805,6.029,13.3057,4.60019,2470.11,2020-11-12T02:15:15Z
2020-11-12T00:17:21Z,42.805,6.029,13.3047,4.60031,2470.11,2020-11-12T02:18:18Z
2020-11-12T00:20:25Z,42.805,6.029,13.3073,4.60031,2470.124,2020-11-12T02:21:21Z
2020-11-12T00:23:28Z,42.805,6.029,13.3071,4.60017,2470.147,2020-11-12T02:24:24Z
2020-11-12T00:26:31Z,42.805,6.029,13.3078,4.60035,2470.1,2020-11-12T02:27:27Z
2020-11-12T00:29:34Z,42.805,6.029,13.3011,4.60052,2470.124,2020-11-12T02:30:30Z
2020-11-12T00:32:37Z,42.805,6.029,13.3033,4.60070,2470.087,2020-11-12T02:33:33Z
2020-11-12T00:35:40Z,42.805,6.029,13.3051,4.60039,2470.11,2020-11-12T02:36:36Z
2020-11-12T00:38:43Z,42.805,6.029,13.3011,4.60037,2470.063,2020-11-12T02:39:40Z
2020-11-12T00:41:46Z,42.805,6.029,13.3071,4.60029,2470.124,2020-11-12T02:42:43Z
2020-11-12T00:44:50Z,42.805,6.029,13.3024,4.60095,2470.124,2020-11-12T02:45:46Z
2020-11-12T00:47:53Z,42.805,6.029,13.3044,4.60052,2470.1,2020-11-12T02:48:49Z
2020-11-12T00:50:56Z,42.805,6.029,13.3054,4.60082,2470.124,2020-11-12T02:51:52Z
2020-11-12T00:53:59Z,42.805,6.029,13.3079,4.60055,2470.147,2020-11-12T02:54:55Z
2020-11-12T00:57:02Z,42.805,6.029,13.3072,4.60099,2470.133,2020-11-12T02:57:58Z
2020-11-12T01:00:05Z,42.805,6.029,13.3069,4.60079,2470.147,2020-11-12T03:01:01Z
2020-11-12T01:03:08Z,42.805,6.029,13.3067,4.60032,2470.11,2020-11-12T03:04:04Z
2020-11-12T01:06:11Z,42.805,6.029,13.3082,4.60056,2470.11,2020-11-12T03:07:08Z
2020-11-12T01:09:14Z,42.805,6.029,13.3077,4.60025,2470.147,2020-11-12T03:10:11Z
2020-11-12T01:12:18Z,42.805,6.029,13.3095,4.60016,2470.147,2020-11-12T03:13:14Z
2020-11-12T01:15:21Z,42.805,6.029,13.3047,4.60032,2470.147,2020-11-12T03:16:17Z
2020-11-12T01:18:24Z,42.805,6.029,13.3042,4.60015,2470.124,2020-11-12T03:19:20Z
2020-11-12T01:21:27Z,42.805,6.029,13.3051,4.60029,2470.171,2020-11-12T03:22:23Z
2020-11-12T01:24:30Z,42.805,6.029,13.3021,4.60016,2470.147,2020-11-12T03:25:26Z
2020-11-12T01:27:33Z,42.805,6.029,13.3031,4.60015,2470.11,2020-11-12T03:28:29Z
2020-11-12T01:30:36Z,42.805,6.029,13.3069,4.60037,2470.1,2020-11-12T03:31:33Z
2020-11-12T01:33:39Z,42.805,6.029,13.3054,4.60022,2470.147,2020-11-12T03:34:36Z
2020-11-12T01:36:43Z,42.805,6.029,13.3058,4.60029,2470.124,2020-11-12T03:37:39Z
2020-11-12T01:39:46Z,42.805,6.029,13.3074,4.60026,2470.124,2020-11-12T03:40:42Z
2020-11-12T01:42:49Z,42.805,6.029,13.3026,4.60027,2470.133,2020-11-12T03:43:45Z
2020-11-12T01:45:52Z,42.805,6.029,13.3033,4.60013,2470.156,2020-11-12T03:46:48Z
2020-11-12T01:48:55Z,42.805,6.029,13.3048,4.60003,2470.147,2020-11-12T03:49:51Z
2020-11-12T01:51:58Z,42.805,6.029,13.3051,4.60023,2470.147,2020-11-12T03:52:54Z
2020-11-12T01:55:01Z,42.805,6.029,13.3046,4.60019,2470.194,2020-11-12T03:55:58Z
2020-11-12T01:58:04Z,42.805,6.029,13.3039,4.60024,2470.156,2020-11-12T03:59:01Z
2020-11-12T02:01:08Z,42.805,6.029,13.3048,4.60043,2470.194,2020-11-12T04:02:04Z
2020-11-12T02:04:11Z,42.805,6.029,13.3031,4.60028,2470.156,2020-11-12T04:05:07Z
2020-11-12T02:07:14Z,42.805,6.029,13.3046,4.60019,2470.156,2020-11-12T04:08:10Z
2020-11-12T02:10:17Z,42.805,6.029,13.3084,4.60031,2470.171,2020-11-12T04:11:13Z
2020-11-12T02:13:20Z,42.805,6.029,13.3072,4.60019,2470.171,2020-11-12T04:14:16Z
2020-11-12T02:16:23Z,42.805,6.029,13.3011,4.60010,2470.156,2020-11-12T04:17:19Z
2020-11-12T02:19:26Z,42.805,6.029,13.3027,4.60019,2470.18,2020-11-12T04:20:23Z
2020-11-12T02:22:29Z,42.805,6.029,13.3013,4.60066,2470.156,2020-11-12T04:23:26Z
2020-11-12T02:25:33Z,42.805,6.029,13.3031,4.60019,2470.156,2020-11-12T04:26:29Z
2020-11-12T02:28:36Z,42.805,6.029,13.3054,4.60049,2470.156,2020-11-12T04:29:32Z
2020-11-12T02:31:39Z,42.805,6.029,13.3069,4.60017,2470.156,2020-11-12T04:32:35Z
2020-11-12T02:34:42Z,42.805,6.029,13.3085,4.60036,2470.18,2020-11-12T04:35:38Z
2020-11-12T02:37:45Z,42.805,6.029,13.3087,4.60019,2470.217,2020-11-12T04:38:41Z
2020-11-12T02:40:48Z,42.805,6.029,13.3089,4.60014,2470.194,2020-11-12T04:41:44Z
2020-11-12T02:43:51Z,42.805,6.029,13.3055,4.60016,2470.217,2020-11-12T04:44:48Z
2020-11-12T02:46:54Z,42.805,6.029,13.3051,4.60017,2470.194,2020-11-12T04:47:51Z
2020-11-12T02:49:58Z,42.805,6.029,13.3052,4.60016,2470.194,2020-11-12T04:50:54Z
2020-11-12T02:53:01Z,42.805,6.029,13.3050,4.60019,2470.194,2020-11-12T04:53:57Z
2020-11-12T02:56:04Z,42.805,6.029,13.3058,4.60021,2470.194,2020-11-12T04:57:00Z
2020-11-12T02:59:07Z,42.805,6.029,13.3058,4.60014,2470.156,2020-11-12T05:00:03Z
2020-11-12T03:02:10Z,42.805,6.029,13.3048,4.60008,2470.217,2020-11-12T05:03:06Z
2020-11-12T03:05:13Z,42.805,6.029,13.3048,4.60026,2470.217,2020-11-12T05:06:09Z
2020-11-12T03:08:16Z,42.805,6.029,13.3049,4.60027,2470.217,2020-11-12T05:09:12Z
2020-11-12T03:11:19Z,42.805,6.029,13.3046,4.60036,2470.217,2020-11-12T05:12:16Z
2020-11-12T03:14:22Z,42.805,6.029,13.3054,4.60025,2470.217,2020-11-12T05:15:19Z
2020-11-12T03:17:26Z,42.805,6.029,13.3057,4.60019,2470.24,2020-11-12T05:18:22Z
2020-11-12T03:20:29Z,42.805,6.029,13.3053,4.60023,2470.217,2020-11-12T05:21:25Z
2020-11-12T03:23:32Z,42.805,6.029,13.3054,4.60026,2470.194,2020-11-12T05:24:28Z
2020-11-12T03:26:35Z,42.805,6.029,13.3041,4.60038,2470.227,2020-11-12T05:27:31Z
2020-11-12T03:29:38Z,42.805,6.029,13.3038,4.60033,2470.203,2020-11-12T05:30:34Z
2020-11-12T03:32:41Z,42.805,6.029,13.3043,4.60045,2470.25,2020-11-12T05:33:37Z
2020-11-12T03:35:44Z,42.805,6.029,13.3048,4.60068,2470.24,2020-11-12T05:36:41Z
2020-11-12T03:38:47Z,42.805,6.029,13.3058,4.60003,2470.227,2020-11-12T05:39:44Z
2020-11-12T03:41:51Z,42.805,6.029,13.3069,4.59999,2470.227,2020-11-12T05:42:47Z
2020-11-12T03:44:54Z,42.805,6.029,13.3069,4.60015,2470.203,2020-11-12T05:45:50Z
2020-11-12T03:47:57Z,42.805,6.029,13.3073,4.60009,2470.227,2020-11-12T05:48:53Z
2020-11-12T03:51:00Z,42.805,6.029,13.3055,4.60018,2470.264,2020-11-12T05:51:56Z
2020-11-12T03:54:03Z,42.805,6.029,13.3048,4.60033,2470.227,2020-11-12T05:54:59Z
2020-11-12T03:57:06Z,42.805,6.029,13.3064,4.60031,2470.227,2020-11-12T05:58:02Z
2020-11-12T04:00:09Z,42.805,6.029,13.2995,4.60035,2470.24,2020-11-12T06:01:06Z
2020-11-12T04:03:12Z,42.805,6.029,13.2986,4.60092,2470.24,2020-11-12T06:04:09Z
2020-11-12T04:06:16Z,42.805,6.029,13.2984,4.60005,2470.264,2020-11-12T06:07:12Z
2020-11-12T04:09:19Z,42.805,6.029,13.2982,4.60062,2470.227,2020-11-12T06:10:15Z
2020-11-12T04:12:22Z,42.805,6.029,13.2981,4.60002,2470.227,2020-11-12T06:13:18Z
2020-11-12T04:15:25Z,42.805,6.029,13.2979,4.59999,2470.287,2020-11-12T06:16:21Z
2020-11-12T04:18:28Z,42.805,6.029,13.2982,4.59998,2470.25,2020-11-12T06:19:24Z
2020-11-12T04:21:31Z,42.805,6.029,13.2987,4.59996,2470.264,2020-11-12T06:22:27Z
2020-11-12T04:24:34Z,42.805,6.029,13.2979,4.59991,2470.25,2020-11-12T06:25:31Z
2020-11-12T04:27:37Z,42.805,6.029,13.2979,4.59990,2470.227,2020-11-12T06:28:34Z
2020-11-12T04:30:41Z,42.805,6.029,13.2980,4.59989,2470.24,2020-11-12T06:31:37Z
2020-11-12T04:33:44Z,42.805,6.029,13.2976,4.59990,2470.264,2020-11-12T06:34:40Z
2020-11-12T04:36:47Z,42.805,6.029,13.2982,4.59990,2470.24,2020-11-12T06:37:43Z
2020-11-12T04:39:50Z,42.805,6.029,13.2982,4.59996,2470.25,2020-11-12T06:40:46Z
2020-11-12T04:42:53Z,42.805,6.029,13.2981,4.59992,2470.25,2020-11-12T06:43:49Z
2020-11-12T04:45:56Z,42.805,6.029,13.2981,4.59993,2470.25,2020-11-12T06:46:52Z
2020-11-12T04:48:59Z,42.805,6.029,13.2976,4.60000,2470.25,2020-11-12T06:49:56Z
2020-11-12T04:52:02Z,42.805,6.029,13.2982,4.60003,2470.287,2020-11-12T06:52:59Z
2020-11-12T04:55:06Z,42.805,6.029,13.2980,4.59992,2470.25,2020-11-12T06:56:02Z
2020-11-12T04:58:09Z,42.805,6.029,13.2980,4.59990,2470.227,2020-11-12T06:59:05Z
2020-11-12T05:01:12Z,42.805,6.029,13.2978,4.59991,2470.25,2020-11-12T07:02:08Z
2020-11-12T05:04:15Z,42.805,6.029,13.2981,4.59994,2470.217,2020-11-12T07:05:11Z
2020-11-12T05:07:18Z,42.805,6.029,13.2974,4.59995,2470.264,2020-11-12T07:08:14Z
2020-11-12T05:10:21Z,42.805,6.029,13.2979,4.59990,2470.227,2020-11-12T07:11:17Z
2020-11-12T05:13:24Z,42.805,6.029,13.2979,4.59989,2470.227,2020-11-12T07:14:21Z
2020-11-12T05:16:27Z,42.805,6.029,13.2980,4.59988,2470.25,2020-11-12T07:17:24Z
2020-11-12T05:19:31Z,42.805,6.029,13.2978,4.59986,2470.264,2020-11-12T07:20:27Z
2020-11-12T05:22:34Z,42.805,6.029,13.2980,4.59990,2470.264,2020-11-12T07:23:30Z
2020-11-12T05:25:37Z,42.805,6.029,13.2979,4.59989,2470.273,2020-11-12T07:26:33Z
2020-11-12T05:28:40Z,42.805,6.029,13.2976,4.59994,2470.227,2020-11-12T07:29:36Z
2020-11-12T05:31:43Z,42.805,6.029,13.2976,4.59991,2470.264,2020-11-12T07:32:39Z
2020-11-12T05:34:46Z,42.805,6.029,13.2979,4.59992,2470.25,2020-11-12T07:35:42Z
2020-11-12T05:37:49Z,42.805,6.029,13.2979,4.59992,2470.203,2020-11-12T07:38:46Z
2020-11-12T05:40:52Z,42.805,6.029,13.2977,4.59996,2470.227,2020-11-12T07:41:49Z
2020-11-12T05:43:56Z,42.805,6.029,13.2978,4.59988,2470.227,2020-11-12T07:44:52Z
2020-11-12T05:46:59Z,42.805,6.029,13.2976,4.59999,2470.264,2020-11-12T07:47:55Z
2020-11-12T05:50:02Z,42.805,6.029,13.2980,4.59998,2470.264,2020-11-12T07:50:58Z
2020-11-12T05:53:05Z,42.805,6.029,13.2978,4.59992,2470.24,2020-11-12T07:54:01Z
2020-11-12T05:56:08Z,42.805,6.029,13.2980,4.59995,2470.227,2020-11-12T07:57:04Z
2020-11-12T05:59:11Z,42.805,6.029,13.2981,4.59994,2470.25,2020-11-12T08:00:07Z
2020-11-12T06:02:14Z,42.805,6.029,13.2982,4.59992,2470.227,2020-11-12T08:03:11Z
2020-11-12T06:05:17Z,42.805,6.029,13.2978,4.59991,2470.227,2020-11-12T08:06:14Z
2020-11-12T06:08:20Z,42.805,6.029,13.2979,4.59992,2470.24,2020-11-12T08:09:17Z
2020-11-12T06:11:24Z,42.805,6.029,13.2981,4.59999,2470.227,2020-11-12T08:12:20Z
2020-11-12T06:14:27Z,42.805,6.029,13.2982,4.59999,2470.24,2020-11-12T08:15:23Z
2020-11-12T06:17:30Z,42.805,6.029,13.2978,4.59995,2470.24,2020-11-12T08:18:26Z
2020-11-12T06:20:33Z,42.805,6.029,13.2981,4.59997,2470.203,2020-11-12T08:21:29Z
2020-11-12T06:23:36Z,42.805,6.029,13.2978,4.59997,2470.24,2020-11-12T08:24:32Z
2020-11-12T06:26:39Z,42.805,6.029,13.2982,4.59996,2470.227,2020-11-12T08:27:35Z
2020-11-12T06:29:42Z,42.805,6.029,13.2982,4.59996,2470.227,2020-11-12T08:30:39Z
2020-11-12T06:32:45Z,42.805,6.029,13.2976,4.59999,2470.227,2020-11-12T08:33:42Z
2020-11-12T06:35:49Z,42.805,6.029,13.2979,4.59996,2470.227,2020-11-12T08:36:45Z
2020-11-12T06:38:52Z,42.805,6.029,13.2976,4.59995,2470.203,2020-11-12T08:39:48Z
2020-11-12T06:41:55Z,42.805,6.029,13.2980,4.59991,2470.264,2020-11-12T08:42:51Z
2020-11-12T06:44:58Z,42.805,6.029,13.2981,4.59993,2470.227,2020-11-12T08:45:54Z
2020-11-12T06:48:01Z,42.805,6.029,13.2976,4.59994,2470.24,2020-11-12T08:48:57Z
2020-11-12T06:51:04Z,42.805,6.029,13.2980,4.59997,2470.217,2020-11-12T08:52:00Z
2020-11-12T06:54:07Z,42.805,6.029,13.2981,4.59994,2470.227,2020-11-12T08:55:04Z
2020-11-12T06:57:10Z,42.805,6.029,13.2981,4.59992,2470.227,2020-11-12T08:58:07Z
2020-11-12T07:00:14Z,42.805,6.029,13.2980,4.59996,2470.24,2020-11-12T09:01:10Z
2020-11-12T07:03:17Z,42.805,6.029,13.2975,4.59989,2470.203,2020-11-12T09:04:13Z
2020-11-12T07:06:20Z,42.805,6.029,13.2982,4.59989,2470.203,2020-11-12T09:07:16Z
2020-11-12T07:09:23Z,42.805,6.029,13.2981,4.59992,2470.203,2020-11-12T09:10:19Z
2020-11-12T07:12:26Z,42.805,6.029,13.2981,4.59994,2470.227,2020-11-12T09:13:22Z
2020-11-12T07:15:29Z,42.805,6.029,13.2978,4.59994,2470.18,2020-11-12T09:16:25Z
2020-11-12T07:18:32Z,42.805,6.029,13.2985,4.59995,2470.217,2020-11-12T09:19:29Z
2020-11-12T07:21:35Z,42.805,6.029,13.2988,4.60011,2470.203,2020-11-12T09:22:32Z
2020-11-12T07:24:39Z,42.805,6.029,13.2982,4.59999,2470.264,2020-11-12T09:25:35Z
2020-11-12T07:27:42Z,42.805,6.029,13.2974,4.59995,2470.203,2020-11-12T09:28:38Z
2020-11-12T07:30:45Z,42.805,6.029,13.3002,4.59991,2470.217,2020-11-12T09:31:41Z
2020-11-12T07:33:48Z,42.805,6.029,13.3020,4.59995,2470.217,2020-11-12T09:34:44Z
2020-11-12T07:36:51Z,42.805,6.029,13.2989,4.59994,2470.18,2020-11-12T09:37:47Z
2020-11-12T07:39:54Z,42.805,6.029,13.3000,4.59995,2470.217,2020-11-12T09:40:50Z
2020-11-12T07:42:57Z,42.805,6.029,13.2979,4.59991,2470.203,2020-11-12T09:43:54Z
2020-11-12T07:46:00Z,42.805,6.029,13.2977,4.59987,2470.18,2020-11-12T09:46:57Z
2020-11-12T07:49:04Z,42.805,6.029,13.2981,4.59990,2470.194,2020-11-12T09:50:00Z
2020-11-12T07:52:07Z,42.805,6.029,13.2979,4.59986,2470.203,2020-11-12T09:53:03Z
2020-11-12T07:55:10Z,42.805,6.029,13.2981,4.59995,2470.171,2020-11-12T09:56:06Z
2020-11-12T07:58:13Z,42.805,6.029,13.2983,4.59999,2470.18,2020-11-12T09:59:09Z
2020-11-12T08:01:16Z,42.805,6.029,13.3006,4.60007,2470.18,2020-11-12T10:02:12Z
2020-11-12T08:04:19Z,42.805,6.029,13.3009,4.60006,2470.18,2020-11-12T10:05:15Z
2020-11-12T08:07:22Z,42.805,6.029,13.3018,4.60023,2470.156,2020-11-12T10:08:19Z
2020-11-12T08:10:25Z,42.805,6.029,13.3009,4.60032,2470.156,2020-11-12T10:11:22Z
2020-11-12T08:13:29Z,42.805,6.029,13.3015,4.60014,2470.18,2020-11-12T10:14:25Z
2020-11-12T08:16:32Z,42.805,6.029,13.2998,4.60011,2470.171,2020-11-12T10:17:28Z
2020-11-12T08:19:35Z,42.805,6.029,13.3009,4.60003,2470.171,2020-11-12T10:20:31Z
2020-11-12T08:22:38Z,42.805,6.029,13.2996,4.60014,2470.217,2020-11-12T10:23:34Z
2020-11-12T08:25:41Z,42.805,6.029,13.3009,4.60022,2470.171,2020-11-12T10:26:37Z
2020-11-12T08:28:44Z,42.805,6.029,13.3011,4.60005,2470.156,2020-11-12T10:29:40Z
2020-11-12T08:31:47Z,42.805,6.029,13.3009,4.60022,2470.156,2020-11-12T10:32:44Z
2020-11-12T08:34:50Z,42.805,6.029,13.2991,4.60005,2470.171,2020-11-12T10:35:47Z
2020-11-12T08:37:54Z,42.805,6.029,13.3004,4.60027,2470.147,2020-11-12T10:38:50Z
2020-11-12T08:40:57Z,42.805,6.029,13.3015,4.60039,2470.133,2020-11-12T10:41:53Z
2020-11-12T08:44:00Z,42.805,6.029,13.3012,4.60037,2470.147,2020-11-12T10:44:56Z
2020-11-12T08:47:03Z,42.805,6.029,13.3016,4.60029,2470.171,2020-11-12T10:47:59Z
2020-11-12T08:50:06Z,42.805,6.029,13.3007,4.60053,2470.18,2020-11-12T10:51:02Z
2020-11-12T08:53:09Z,42.805,6.029,13.3015,4.60034,2470.156,2020-11-12T10:54:06Z
2020-11-12T08:56:12Z,42.805,6.029,13.3015,4.60029,2470.18,2020-11-12T10:57:09Z
2020-11-12T08:59:15Z,42.805,6.029,13.2995,4.60051,2470.133,2020-11-12T11:00:12Z
2020-11-12T09:02:19Z,42.805,6.029,13.3010,4.60067,2470.147,2020-11-12T11:03:15Z
2020-11-12T09:05:22Z,42.805,6.029,13.3009,4.60067,2470.156,2020-11-12T11:06:18Z
2020-11-12T09:08:25Z,42.805,6.029,13.3013,4.60072,2470.171,2020-11-12T11:09:21Z
2020-11-12T09:11:28Z,42.805,6.029,13.3011,4.60067,2470.133,2020-11-12T11:12:24Z
2020-11-12T09:14:31Z,42.805,6.029,13.3012,4.60061,2470.156,2020-11-12T11:15:27Z
2020-11-12T09:17:34Z,42.805,6.029,13.3030,4.60051,2470.171,2020-11-12T11:18:31Z
2020-11-12T09:20:37Z,42.805,6.029,13.2985,4.60080,2470.147,2020-11-12T11:21:34Z
2020-11-12T09:23:40Z,42.805,6.029,13.3009,4.60075,2470.11,2020-11-12T11:24:37Z
2020-11-12T09:26:44Z,42.805,6.029,13.3006,4.60031,2470.171,2020-11-12T11:27:40Z
2020-11-12T09:29:47Z,42.805,6.029,13.3010,4.60084,2470.156,2020-11-12T11:30:43Z
2020-11-12T09:32:50Z,42.805,6.029,13.3004,4.60029,2470.147,2020-11-12T11:33:46Z
2020-11-12T09:35:53Z,42.805,6.029,13.3004,4.60015,2470.133,2020-11-12T11:36:49Z
2020-11-12T09:38:56Z,42.805,6.029,13.3008,4.60031,2470.171,2020-11-12T11:39:52Z
2020-11-12T09:41:59Z,42.805,6.029,13.2993,4.60041,2470.133,2020-11-12T11:42:56Z
2020-11-12T09:45:02Z,42.805,6.029,13.2995,4.60026,2470.156,2020-11-12T11:45:59Z
2020-11-12T09:48:06Z,42.805,6.029,13.2991,4.60072,2470.133,2020-11-12T11:49:02Z
2020-11-12T09:51:09Z,42.805,6.029,13.3011,4.60033,2470.11,2020-11-12T11:52:05Z
2020-11-12T09:54:12Z,42.805,6.029,13.3003,4.60063,2470.133,2020-11-12T11:55:08Z
2020-11-12T09:57:15Z,42.805,6.029,13.2996,4.60049,2470.11,2020-11-12T11:58:11Z
2020-11-12T10:00:18Z,42.805,6.029,13.2991,4.60047,2470.147,2020-11-12T12:01:14Z
2020-11-12T10:03:21Z,42.805,6.029,13.2989,4.60017,2470.147,2020-11-12T12:04:17Z
2020-11-12T10:06:24Z,42.805,6.029,13.2996,4.60028,2470.124,2020-11-12T12:07:21Z
2020-11-12T10:09:27Z,42.805,6.029,13.2993,4.60024,2470.147,2020-11-12T12:10:24Z
2020-11-12T10:12:31Z,42.805,6.029,13.2990,4.60036,2470.147,2020-11-12T12:13:27Z
2020-11-12T10:15:34Z,42.805,6.029,13.2996,4.60050,2470.124,2020-11-12T12:16:30Z
2020-11-12T10:18:37Z,42.805,6.029,13.2989,4.60042,2470.133,2020-11-12T12:19:33Z
2020-11-12T10:21:40Z,42.805,6.029,13.2986,4.60029,2470.147,2020-11-12T12:22:36Z
2020-11-12T10:24:43Z,42.805,6.029,13.2996,4.60041,2470.11,2020-11-12T12:25:39Z
2020-11-12T10:27:46Z,42.805,6.029,13.2991,4.60036,2470.147,2020-11-12T12:28:42Z
2020-11-12T10:30:49Z,42.805,6.029,13.2997,4.60044,2470.147,2020-11-12T12:31:46Z
2020-11-12T10:33:52Z,42.805,6.029,13.2996,4.60022,2470.11,2020-11-12T12:34:49Z
2020-11-12T10:36:56Z,42.805,6.029,13.3004,4.60036,2470.11,2020-11-12T12:37:52Z
2020-11-12T10:39:59Z,42.805,6.029,13.2991,4.60040,2470.124,2020-11-12T12:40:55Z
2020-11-12T10:43:02Z,42.805,6.029,13.2992,4.60037,2470.133,2020-11-12T12:43:58Z
2020-11-12T10:46:05Z,42.805,6.029,13.2985,4.60031,2470.087,2020-11-12T12:47:01Z
2020-11-12T10:49:08Z,42.805,6.029,13.2998,4.60035,2470.11,2020-11-12T12:50:04Z
2020-11-12T10:52:11Z,42.805,6.029,13.2992,4.60048,2470.124,2020-11-12T12:53:07Z
2020-11-12T10:55:14Z,42.805,6.029,13.3002,4.60048,2470.11,2020-11-12T12:56:11Z
2020-11-12T10:58:17Z,42.805,6.029,13.2996,4.60031,2470.11,2020-11-12T12:59:14Z
2020-11-12T11:01:21Z,42.805,6.029,13.2995,4.60056,2470.124,2020-11-12T13:02:17Z
2020-11-12T11:04:24Z,42.805,6.029,13.2990,4.60036,2470.124,2020-11-12T13:05:20Z
2020-11-12T11:07:27Z,42.805,6.029,13.2990,4.60047,2470.133,2020-11-12T13:08:23Z
2020-11-12T11:10:30Z,42.805,6.029,13.2996,4.60025,2470.133,2020-11-12T13:11:26Z
2020-11-12T11:13:33Z,42.805,6.029,13.2994,4.60014,2470.11,2020-11-12T13:14:29Z
2020-11-12T11:16:36Z,42.805,6.029,13.2991,4.60019,2470.11,2020-11-12T13:17:32Z
2020-11-12T11:19:39Z,42.805,6.029,13.2994,4.60028,2470.147,2020-11-12T13:20:36Z
2020-11-12T11:22:42Z,42.805,6.029,13.3006,4.60032,2470.11,2020-11-12T13:23:39Z
2020-11-12T11:25:46Z,42.805,6.029,13.2991,4.60044,2470.124,2020-11-12T13:26:42Z
2020-11-12T11:28:49Z,42.805,6.029,13.2988,4.60040,2470.124,2020-11-12T13:29:45Z
2020-11-12T11:31:52Z,42.805,6.029,13.2996,4.60042,2470.171,2020-11-12T13:32:48Z
2020-11-12T11:34:55Z,42.805,6.029,13.2992,4.60029,2470.124,2020-11-12T13:35:51Z
2020-11-12T11:37:58Z,42.805,6.029,13.2993,4.60045,2470.087,2020-11-12T13:38:54Z
2020-11-12T11:41:01Z,42.805,6.029,13.2990,4.60027,2470.11,2020-11-12T13:41:58Z
2020-11-12T11:44:04Z,42.805,6.029,13.2985,4.60024,2470.147,2020-11-12T13:45:01Z
2020-11-12T11:47:07Z,42.805,6.029,13.2988,4.60014,2470.124,2020-11-12T13:48:04Z
2020-11-12T11:50:11Z,42.805,6.029,13.2992,4.60024,2470.11,2020-11-12T13:51:07Z
2020-11-12T11:53:14Z,42.805,6.029,13.2988,4.60017,2470.124,2020-11-12T13:54:10Z
2020-11-12T11:56:17Z,42.805,6.029,13.2992,4.60019,2470.096,2020-11-12T13:57:13Z
2020-11-12T11:59:20Z,42.805,6.029,13.2989,4.60025,2470.087,2020-11-12T14:00:16Z
2020-11-12T12:02:23Z,42.805,6.029,13.2998,4.60032,2470.11,2020-11-12T14:03:19Z
2020-11-12T12:05:26Z,42.805,6.029,13.2994,4.60037,2470.147,2020-11-12T14:06:23Z
2020-11-12T12:08:29Z,42.805,6.029,13.2998,4.60031,2470.124,2020-11-12T14:09:26Z
2020-11-12T12:11:33Z,42.805,6.029,13.2992,4.60068,2470.133,2020-11-12T14:12:29Z
2020-11-12T12:14:36Z,42.805,6.029,13.3001,4.60049,2470.133,2020-11-12T14:15:32Z
2020-11-12T12:17:39Z,42.805,6.029,13.3001,4.60052,2470.11,2020-11-12T14:18:35Z
2020-11-12T12:20:42Z,42.805,6.029,13.3003,4.60037,2470.087,2020-11-12T14:21:38Z
2020-11-12T12:23:45Z,42.805,6.029,13.2987,4.60027,2470.11,2020-11-12T14:24:41Z
2020-11-12T12:26:48Z,42.805,6.029,13.2999,4.60052,2470.11,2020-11-12T14:27:44Z
2020-11-12T12:29:51Z,42.805,6.029,13.2997,4.60046,2470.087,2020-11-12T14:30:48Z
2020-11-12T12:32:54Z,42.805,6.029,13.3003,4.60042,2470.11,2020-11-12T14:33:51Z
2020-11-12T12:35:58Z,42.805,6.029,13.2984,4.60029,2470.147,2020-11-12T14:36:54Z
2020-11-12T12:39:01Z,42.805,6.029,13.3008,4.60062,2470.156,2020-11-12T14:39:57Z
2020-11-12T12:42:04Z,42.805,6.029,13.3008,4.60049,2470.124,2020-11-12T14:43:00Z
2020-11-12T12:45:07Z,42.805,6.029,13.3006,4.60053,2470.147,2020-11-12T14:46:03Z
2020-11-12T12:48:10Z,42.805,6.029,13.3008,4.60054,2470.133,2020-11-12T14:49:06Z
2020-11-12T12:51:13Z,42.805,6.029,13.2986,4.60029,2470.156,2020-11-12T14:52:09Z
2020-11-12T12:54:16Z,42.805,6.029,13.2991,4.60052,2470.124,2020-11-12T14:55:13Z
2020-11-12T12:57:19Z,42.805,6.029,13.3009,4.60028,2470.133,2020-11-12T14:58:16Z
2020-11-12T13:00:23Z,42.805,6.029,13.2996,4.60054,2470.171,2020-11-12T15:01:19Z
2020-11-12T13:03:26Z,42.805,6.029,13.2992,4.60052,2470.133,2020-11-12T15:04:22Z
2020-11-12T13:06:29Z,42.805,6.029,13.2996,4.60065,2470.156,2020-11-12T15:07:25Z
2020-11-12T13:09:32Z,42.805,6.029,13.3004,4.60085,2470.171,2020-11-12T15:10:28Z
2020-11-12T13:12:35Z,42.805,6.029,13.2998,4.60063,2470.156,2020-11-12T15:13:31Z
2020-11-12T13:15:38Z,42.805,6.029,13.3000,4.60047,2470.156,2020-11-12T15:16:34Z
2020-11-12T13:18:41Z,42.805,6.029,13.2993,4.60054,2470.171,2020-11-12T15:19:38Z
2020-11-12T13:21:44Z,42.805,6.029,13.2994,4.60036,2470.171,2020-11-12T15:22:41Z
2020-11-12T13:24:48Z,42.805,6.029,13.3007,4.60035,2470.171,2020-11-12T15:25:44Z
2020-11-12T13:27:51Z,42.805,6.029,13.3006,4.60055,2470.194,2020-11-12T15:28:47Z
2020-11-12T13:30:54Z,42.805,6.029,13.3032,4.60072,2470.194,2020-11-12T15:31:50Z
2020-11-12T13:33:57Z,42.805,6.029,13.3029,4.60042,2470.18,2020-11-12T15:34:53Z
2020-11-12T13:37:00Z,42.805,6.029,13.3037,4.60065,2470.133,2020-11-12T15:37:56Z
2020-11-12T13:40:03Z,42.805,6.029,13.3037,4.60069,2470.156,2020-11-12T15:40:59Z
2020-11-12T13:43:06Z,42.805,6.029,13.3039,4.60097,2470.18,2020-11-12T15:44:03Z
2020-11-12T13:46:09Z,42.805,6.029,13.3041,4.60058,2470.217,2020-11-12T15:47:06Z
2020-11-12T13:49:13Z,42.805,6.029,13.3045,4.60180,2470.217,2020-11-12T15:50:09Z
2020-11-12T13:52:16Z,42.805,6.029,13.3049,4.60046,2470.166,2020-11-12T15:53:12Z
2020-11-12T13:55:19Z,42.805,6.029,13.3040,4.60026,2470.194,2020-11-12T15:56:15Z
2020-11-12T13:58:22Z,42.805,6.029,13.3024,4.60048,2470.18,2020-11-12T15:59:18Z
2020-11-12T14:01:25Z,42.805,6.029,13.3037,4.60057,2470.217,2020-11-12T16:02:21Z
2020-11-12T14:04:28Z,42.805,6.029,13.3046,4.60044,2470.203,2020-11-12T16:05:25Z
2020-11-12T14:07:31Z,42.805,6.029,13.3041,4.60014,2470.194,2020-11-12T16:08:28Z
2020-11-12T14:10:34Z,42.805,6.029,13.3016,4.60028,2470.217,2020-11-12T16:11:31Z
2020-11-12T14:13:38Z,42.805,6.029,13.3011,4.59997,2470.208,2020-11-12T16:14:34Z
2020-11-12T14:16:41Z,42.805,6.029,13.3027,4.60014,2470.18,2020-11-12T16:17:37Z
2020-11-12T14:19:44Z,42.805,6.029,13.3012,4.60024,2470.24,2020-11-12T16:20:40Z
2020-11-12T14:22:47Z,42.805,6.029,13.3026,4.60036,2470.217,2020-11-12T16:23:43Z
2020-11-12T14:25:50Z,42.805,6.029,13.3021,4.60015,2470.227,2020-11-12T16:26:46Z
2020-11-12T14:28:53Z,42.805,6.029,13.3014,4.60002,2470.217,2020-11-12T16:29:50Z
2020-11-12T14:31:56Z,42.805,6.029,13.2998,4.60007,2470.227,2020-11-12T16:32:53Z
2020-11-12T14:34:59Z,42.805,6.029,13.3035,4.60006,2470.264,2020-11-12T16:35:56Z
2020-11-12T14:38:03Z,42.805,6.029,13.3014,4.60012,2470.24,2020-11-12T16:38:59Z
2020-11-12T14:41:06Z,42.805,6.029,13.3011,4.60002,2470.25,2020-11-12T16:42:02Z
2020-11-12T14:44:09Z,42.805,6.029,13.3006,4.60011,2470.264,2020-11-12T16:45:05Z
2020-11-12T14:47:12Z,42.805,6.029,13.3010,4.60021,2470.25,2020-11-12T16:48:08Z
2020-11-12T14:50:15Z,42.805,6.029,13.3011,4.60008,2470.24,2020-11-12T16:51:11Z
2020-11-12T14:53:18Z,42.805,6.029,13.2993,4.59996,2470.264,2020-11-12T16:54:15Z
2020-11-12T14:56:21Z,42.805,6.029,13.3005,4.60011,2470.264,2020-11-12T16:57:18Z
2020-11-12T14:59:25Z,42.805,6.029,13.3007,4.60007,2470.227,2020-11-12T17:00:21Z
2020-11-12T15:02:28Z,42.805,6.029,13.2998,4.60017,2470.264,2020-11-12T17:03:24Z